Temperature
23 23 23 22 19 17 20 21 21 22 22 23 23 23 22 22 22 22 21 22 22 21 20 19 19 19 19 20 20 20 20 20 20 19 19 19 19 18 18 18 18 18 18 18 18 18 18 18 18
23 23 23 22 18 19 20 21 22 22 23 23 23 23 22 21 22 22 22 21 21 21 20 19 19 19 19 19 20 20 19 19 19 19 19 19 18 18 18 18 18 18 18 18 18 18 18 18 18
23 23 23 18 18 19 21 22 22 23 24 24 23 23 23 22 22 22 22 22 21 21 20 20 19 19 19 19 19 19 19 19 19 19 19 19 18 18 18 18 18 18 18 18 18 18 18 18 18
23 22 21 17 19 19 20 22 22 23 24 24 23 22 22 22 22 22 22 22 21 21 20 20 19 19 19 19 19 19 19 19 19 19 19 19 18 18 18 18 18 18 18 18 18 18 18 18 18
22 22 18 17 18 19 20 22 23 22 23 24 23 22 21 22 22 22 22 22 21 21 20 20 20 19 19 19 19 19 19 19 19 19 19 19 18 18 18 18 18 18 18 18 18 18 18 18 18
21 18 17 17 19 20 21 24 23 23 23 24 23 21 21 22 22 22 22 22 21 21 21 20 20 20 20 20 20 19 19 19 19 19 19 18 18 18 18 18 18 18 18 18 18 18 18 18 18
20 15 16 18 19 20 22 24 23 22 22 23 23 21 21 22 22 22 22 21 21 21 21 20 20 20 20 20 20 20 19 19 19 19 19 18 18 18 18 18 18 18 18 18 18 18 18 18 18
20 15 17 17 19 21 23 24 24 23 23 24 24 21 21 22 21 21 21 21 21 20 20 20 20 20 20 20 20 19 19 19 19 19 18 18 18 18 18 18 18 18 18 18 18 18 18 18 18
19 15 16 17 19 22 23 23 24 24 24 23 24 24 24 22 21 21 21 20 20 20 20 20 20 20 20 20 20 19 19 19 19 18 18 18 18 18 18 18 18 17 17 17 17 17 17 17 18
19 15 16 18 20 22 22 23 24 24 23 23 23 24 24 22 21 21 21 21 21 21 21 20 20 20 20 20 20 19 19 19 19 18 18 18 18 18 17 17 17 17 17 17 17 17 17 17 17
17 16 17 19 22 23 22 23 24 23 22 24 24 24 23 22 21 21 21 22 22 22 21 21 21 20 20 20 20 20 19 19 19 18 18 18 18 17 17 17 17 17 17 17 17 17 17 17 17
16 17 19 22 23 23 23 24 23 23 25 27 26 25 24 22 22 22 22 22 22 22 22 21 21 21 20 20 20 20 19 19 19 18 18 18 18 17 17 17 17 17 17 17 17 17 17 17 17
18 19 21 22 23 22 23 23 23 24 26 26 26 25 24 23 23 23 23 22 22 22 22 22 21 21 21 20 20 20 20 19 19 19 18 18 18 17 17 17 17 17 17 17 17 16 16 16 16
19 20 21 22 23 23 22 23 23 25 26 26 25 25 24 24 23 22 22 22 22 22 22 22 22 21 21 21 20 20 20 19 19 19 18 18 17 17 17 17 17 17 17 16 16 16 16 16 16
20 20 20 21 22 23 23 23 23 26 26 25 24 24 24 23 23 23 23 23 23 23 22 22 22 21 21 21 20 20 20 19 19 19 18 18 17 17 17 17 17 16 16 16 16 16 16 16 16
19 19 20 20 21 23 23 23 23 26 24 23 23 23 23 23 23 24 24 24 23 23 22 22 22 21 21 20 20 19 19 19 18 18 18 17 17 17 17 16 16 16 16 16 16 16 15 15 15
17 18 20 21 21 21 22 22 22 24 23 23 23 23 23 23 23 24 24 24 24 23 23 22 22 21 21 20 19 19 19 18 18 18 17 17 17 16 16 16 16 16 16 15 15 15 15 15 15
17 18 19 20 21 20 21 21 21 23 22 22 23 22 22 22 24 25 24 24 23 23 22 22 21 21 20 20 19 18 18 18 17 17 17 17 17 16 16 16 16 16 15 15 15 14 14 14 14
18 19 19 19 20 21 20 20 20 21 21 21 22 22 22 23 25 24 24 23 23 23 22 22 21 20 20 19 19 18 17 17 17 17 17 16 16 16 16 16 15 15 15 14 14 14 13 13 13
18 18 18 18 19 21 20 19 19 20 20 22 22 22 22 23 23 23 23 23 23 22 22 21 21 20 19 19 18 18 17 17 16 16 16 16 16 16 15 15 15 15 14 14 13 13 13 13 13
17 18 18 18 18 19 20 19 19 20 21 21 22 22 22 22 23 23 23 23 23 22 21 21 20 19 19 18 18 17 16 16 16 15 15 15 15 15 14 14 14 14 14 13 13 12 12 12 12
17 18 18 19 18 16 19 17 18 19 18 18 20 21 21 21 22 22 22 22 22 21 21 20 19 18 18 17 17 17 16 16 15 15 15 14 14 14 13 13 13 13 13 12 12 12 11 11 10
18 19 19 19 18 17 17 17 17 17 19 19 18 19 20 21 21 21 20 21 20 20 20 19 18 17 17 17 16 16 16 15 15 14 14 13 13 13 13 12 12 12 12 11 11 10 10 9 9
19 19 17 14 15 16 17 16 17 17 18 17 17 17 17 18 19 18 18 18 18 18 17 17 17 16 16 16 15 15 15 15 14 14 13 13 12 12 12 11 11 11 10 10 9 9 8 8 7
18 16 15 16 14 15 17 16 16 17 16 16 16 16 16 16 16 16 16 16 16 16 16 16 16 15 16 15 15 15 14 14 13 13 13 12 12 11 10 10 10 9 9 8 8 8 7 7 6
17 16 15 16 16 16 17 16 16 16 16 16 15 15 15 15 15 15 15 15 15 15 15 15 15 15 15 15 15 14 13 13 13 12 12 11 10 10 9 9 8 8 7 7 7 6 6 6 5
17 15 16 15 16 16 16 16 17 16 16 16 15 14 14 14 14 14 14 14 14 14 14 14 14 14 14 14 14 13 13 12 12 11 10 10 9 8 8 7 7 7 6 6 6 5 5 5 5
18 15 13 14 15 16 17 17 15 15 15 15 15 14 13 13 13 13 13 13 13 13 13 14 14 13 13 13 12 12 11 11 10 10 9 8 8 7 7 6 6 6 5 5 5 5 5 5 4
17 16 15 13 14 15 15 15 15 14 14 14 14 13 12 12 12 12 12 12 13 12 13 13 13 12 12 12 11 11 10 9 9 8 8 7 7 6 6 6 5 5 5 5 5 4 4 4 4
18 17 14 15 15 14 14 14 14 13 14 14 13 12 12 11 11 11 12 12 12 12 12 12 11 11 11 10 10 9 9 8 8 7 7 6 6 5 5 5 5 4 4 4 4 4 4 3 3
Wind_Speed
1 6 4 3 5 5 4 5 3 3 2 2 2 4 4 4 4 3 2 8 13 13 14 17 18 18 19 19 19 19 19 19 18 18 17 17 16 16 15 14 13 13 12 12 12 12 12 11 11
3 4 3 5 5 2 6 5 3 3 3 0 2 2 2 1 2 5 5 8 13 13 14 17 19 19 19 20 20 20 19 19 18 18 17 16 16 15 14 14 13 12 11 11 11 10 10 10 10
3 3 5 5 4 6 5 4 3 3 1 1 1 1 1 3 5 6 7 13 13 12 14 17 20 20 20 20 20 20 19 19 18 17 17 16 15 14 14 13 12 11 10 10 9 9 8 8 8
4 5 5 4 7 7 7 5 3 4 3 1 2 2 2 1 6 7 13 15 15 12 14 18 20 20 20 20 20 19 19 18 18 17 16 15 15 14 13 12 11 10 9 8 8 7 6 6 5
5 5 3 2 7 7 7 7 5 5 4 3 4 2 1 3 8 13 15 15 15 12 13 17 20 20 20 20 20 19 19 18 18 17 16 15 14 13 12 11 10 9 8 7 6 5 5 4 4
5 5 4 6 7 6 6 7 5 7 6 4 6 4 2 4 11 14 13 12 12 13 12 16 20 21 20 20 19 19 18 18 17 16 16 15 14 13 12 10 9 8 7 6 5 4 3 2 2
6 6 6 6 4 5 5 5 5 7 7 7 8 6 2 5 9 12 11 10 10 10 10 12 17 19 20 20 19 19 18 18 17 16 15 14 13 12 11 10 9 7 6 5 3 2 1 1 1
6 6 5 5 5 6 4 2 3 6 6 5 8 8 7 8 11 10 9 9 9 9 9 9 12 15 16 17 19 19 18 17 17 16 15 14 13 12 11 9 8 7 6 4 3 1 0 1 2
5 4 5 7 7 5 2 1 3 3 4 4 5 6 7 14 15 12 9 7 9 11 9 8 9 11 14 15 17 18 18 17 16 15 15 13 11 10 9 9 8 7 6 4 3 1 2 2 3
5 5 8 6 5 4 3 3 4 2 3 4 3 4 12 19 18 17 15 15 16 16 14 10 10 10 12 14 14 13 14 14 14 13 13 12 10 9 7 8 8 7 6 4 3 2 2 3 4
7 8 6 7 8 5 5 5 4 5 6 9 10 12 19 19 18 18 18 18 18 16 15 14 12 11 11 9 10 10 11 11 12 12 12 10 8 7 5 4 4 4 3 1 1 2 3 3 3
6 7 6 5 4 3 5 5 4 8 11 8 11 18 23 23 23 22 21 19 15 14 17 15 14 12 11 9 9 10 9 9 9 11 12 9 6 5 4 3 3 2 1 1 1 2 3 3 3
6 6 7 8 8 6 7 8 7 10 11 5 11 18 23 24 22 19 16 15 15 17 18 16 15 14 12 9 8 9 8 9 10 11 12 11 7 5 4 4 3 3 2 1 1 1 2 3 4
7 7 6 7 7 5 7 7 4 11 5 8 14 19 22 23 21 17 17 17 18 18 18 16 17 16 12 11 9 7 9 10 10 11 12 12 10 6 5 4 3 3 3 3 3 3 3 4 5
3 4 7 6 5 4 3 6 6 8 4 10 14 17 19 19 18 20 21 20 19 18 17 16 16 14 13 12 9 7 8 8 7 8 10 11 10 8 5 3 3 3 4 5 5 6 6 5 5
1 1 2 6 3 3 4 6 8 6 5 10 12 14 17 17 18 19 17 16 15 14 15 15 16 15 13 10 7 4 5 5 4 5 7 9 10 9 6 4 3 5 6 6 4 3 4 4 4
4 1 3 6 2 3 2 6 8 6 7 10 11 14 16 15 16 17 16 16 15 15 14 14 13 14 12 9 6 4 4 4 4 4 5 7 8 8 7 4 5 8 6 4 4 3 3 3 3
5 4 3 4 4 5 3 7 10 6 8 11 11 12 14 17 22 18 15 14 13 13 13 13 12 11 11 9 6 4 3 2 3 2 4 6 7 8 8 6 6 7 6 4 4 5 4 3 1
4 3 4 6 5 3 6 9 11 7 7 10 10 12 15 20 17 11 12 11 11 12 13 13 12 11 11 9 8 5 4 2 2 2 4 6 9 10 9 6 6 5 5 5 5 4 4 4 2
5 4 6 7 3 1 6 9 10 7 7 9 12 14 15 16 11 10 11 10 11 12 11 10 11 10 10 9 7 4 4 4 3 3 5 6 8 9 9 8 6 6 6 6 4 4 3 3 3
6 6 6 7 7 5 4 9 9 7 4 5 7 9 10 12 13 10 8 9 8 8 9 9 10 9 9 9 7 7 5 3 3 3 3 5 8 9 11 10 8 6 6 6 4 4 4 3 3
6 8 7 4 2 5 2 5 10 8 8 7 6 6 7 7 8 7 6 6 5 5 7 8 9 9 9 9 9 8 5 3 3 3 4 6 8 10 10 10 9 7 6 7 5 4 3 4 3
9 5 6 4 4 3 2 3 9 7 7 7 6 5 5 3 2 2 4 6 7 8 9 10 11 11 9 9 9 8 6 5 6 6 7 6 6 8 10 10 9 7 6 6 6 6 5 3 3
5 5 6 5 4 2 6 6 7 5 5 8 7 6 5 4 6 9 10 12 12 11 11 11 13 11 10 9 8 8 8 9 10 9 8 6 5 5 8 9 9 8 6 6 6 5 6 4 3
5 5 4 4 2 7 3 5 7 5 6 5 5 6 7 9 11 12 13 13 13 13 12 12 13 12 10 10 9 9 8 9 10 9 8 8 5 4 6 6 6 6 6 6 6 5 4 3 3
7 10 8 6 6 5 1 5 3 4 6 8 8 10 12 13 13 13 13 13 12 13 12 12 12 11 9 9 10 9 8 7 6 8 7 7 5 5 5 6 6 6 6 6 5 4 3 3 2
8 8 9 7 3 1 4 3 1 5 8 10 11 12 13 13 14 14 14 14 13 13 12 12 12 11 10 10 11 11 9 8 9 9 8 7 6 6 6 6 6 6 6 6 5 4 4 4 3
7 8 7 8 8 5 4 3 2 3 4 7 9 11 11 12 13 14 13 14 13 13 13 13 13 13 12 11 10 10 10 10 9 9 9 8 8 7 7 7 6 6 6 6 6 5 5 5 4
5 5 5 5 5 8 5 5 1 2 2 6 8 10 11 12 12 12 12 12 13 12 12 12 12 13 12 12 11 12 11 10 11 10 9 8 8 7 7 7 7 7 7 6 6 6 5 5 4
5 4 7 5 4 5 6 3 4 1 5 9 10 10 11 11 11 12 12 12 12 12 12 12 12 12 11 11 12 11 11 11 11 10 9 8 8 7 7 7 7 7 6 5 6 5 5 4 5
Wind_Direction
215 134 114 77 47 38 300 274 264 294 277 242 166 142 159 169 187 210 110 129 132 140 152 155 153 147 141 137 133 130 126 124 121 119 118 118 119 119 119 120 119 118 116 113 110 107 105 103 103
167 132 83 63 80 4 284 264 274 267 253 83 86 101 108 181 118 125 132 137 136 141 149 154 153 147 143 139 136 134 133 131 129 128 128 128 127 127 127 128 126 125 123 121 117 113 111 109 108
153 98 95 82 133 191 243 250 244 293 268 85 65 77 154 186 153 156 154 141 135 140 148 157 154 150 146 143 141 139 139 138 137 137 137 137 136 136 136 137 136 134 131 129 126 122 118 114 112
102 61 61 105 210 223 224 246 277 304 313 276 128 90 59 107 156 153 143 143 140 144 152 158 156 153 150 147 145 145 144 144 144 145 145 145 145 145 146 147 146 144 142 139 134 129 122 116 111
62 87 96 211 232 244 242 246 237 237 228 207 145 137 359 30 115 137 147 148 147 148 153 159 157 156 154 153 152 151 150 150 151 152 153 153 154 154 155 156 156 156 154 151 147 139 128 117 105
62 81 137 225 243 255 252 233 211 225 227 191 149 142 262 128 138 152 152 149 149 151 154 160 161 160 160 159 158 157 156 156 157 158 159 160 161 163 163 165 166 167 166 165 160 148 132 111 94
116 124 183 205 231 255 245 214 198 209 215 196 153 143 222 170 166 154 147 140 144 153 156 161 165 165 165 165 163 163 163 163 163 164 165 167 168 171 173 175 178 179 181 183 179 165 134 61 32
132 126 174 206 210 242 236 218 229 199 215 171 144 159 202 186 157 143 131 133 147 159 166 166 167 167 167 169 170 170 170 170 170 171 173 175 178 181 184 186 190 195 200 206 208 212 285 353 348
100 99 197 210 200 232 231 314 282 219 170 163 169 183 187 146 146 141 136 144 165 176 180 177 171 169 168 170 176 176 177 178 178 179 181 182 185 189 194 196 202 208 215 223 235 268 319 341 349
119 171 218 219 212 238 281 264 248 225 188 179 149 140 141 149 160 165 171 176 182 187 189 186 180 175 172 176 178 178 179 182 182 183 185 185 186 192 198 206 214 220 225 235 250 282 331 353 1
171 193 221 238 238 253 282 276 223 184 220 208 187 164 154 163 173 182 186 188 190 189 188 190 187 181 179 180 175 177 177 180 185 187 188 184 184 192 200 206 227 240 244 257 356 7 7 7 5
183 230 226 246 237 252 253 263 246 210 226 212 180 163 164 175 185 191 191 193 190 188 194 191 189 186 187 184 180 179 179 182 187 192 190 182 181 189 195 199 206 207 191 125 39 15 7 15 16
213 251 245 253 273 252 248 245 244 246 242 183 155 163 175 185 192 197 197 193 190 193 196 194 191 191 189 186 183 184 186 188 190 192 194 191 188 191 195 203 202 199 190 171 140 81 55 44 39
224 233 267 279 272 254 242 263 226 260 225 166 165 177 186 192 193 194 198 198 196 199 198 194 194 194 190 191 188 184 188 190 190 194 197 197 197 194 189 190 190 188 179 159 121 97 86 67 63
259 265 299 276 253 250 211 294 242 260 163 175 183 187 192 198 196 201 203 202 200 200 198 195 195 194 193 194 189 184 185 187 192 199 201 203 203 198 187 172 166 158 138 119 100 91 86 77 67
358 109 288 290 275 274 169 264 281 283 189 196 196 194 199 206 206 209 207 205 202 198 197 196 196 192 192 189 179 171 169 171 187 197 199 202 203 195 173 157 145 122 113 106 99 92 83 71 68
22 181 225 295 344 38 108 258 280 288 213 216 207 203 206 212 217 215 209 205 201 199 195 194 194 186 183 173 161 150 140 148 161 179 188 191 184 176 154 139 124 118 103 93 101 74 83 80 77
225 221 235 267 311 10 336 274 287 273 224 230 223 214 213 217 221 216 209 202 198 196 193 193 190 179 167 158 144 130 107 115 115 145 164 162 155 150 138 123 117 114 105 96 93 88 67 66 63
198 217 262 268 280 317 293 288 288 276 246 246 238 225 221 226 228 214 209 201 193 192 192 190 186 174 163 163 159 153 151 140 108 110 123 141 140 137 131 123 112 108 108 112 116 105 81 50 17
207 246 275 290 327 278 296 292 285 270 240 237 238 236 231 236 234 218 212 203 199 194 188 183 181 170 165 162 151 137 126 113 93 80 88 108 120 124 126 121 122 119 115 106 106 120 116 61 28
202 207 237 265 331 347 304 308 305 300 298 286 262 249 244 235 231 226 216 211 200 186 176 174 165 156 148 137 120 107 92 86 102 96 89 86 100 112 122 126 126 123 120 117 108 115 126 122 55
231 223 215 241 333 299 21 304 296 298 315 304 291 280 265 250 234 216 197 192 178 157 142 137 134 129 128 126 130 132 142 146 139 124 108 97 101 108 114 116 116 114 111 114 109 99 104 117 113
213 213 198 212 195 266 266 199 282 316 312 311 324 324 307 279 226 178 140 116 100 101 105 108 109 107 110 114 129 126 122 115 113 109 105 95 89 96 104 110 110 107 106 107 104 99 92 94 111
182 76 51 53 93 243 233 175 270 297 302 317 344 2 5 28 72 84 87 91 90 91 95 100 103 97 94 97 104 111 121 129 132 129 123 110 99 94 98 106 106 105 104 105 105 102 101 102 110
132 108 20 353 29 240 228 171 243 316 348 347 4 31 50 68 78 83 86 87 88 88 90 94 97 94 93 97 100 108 125 136 140 137 132 127 118 107 106 108 106 105 107 108 104 99 98 108 116
177 152 167 199 213 256 217 210 238 35 42 53 60 65 69 71 74 77 79 81 83 83 85 89 92 94 95 100 102 107 115 118 120 120 123 121 115 109 106 103 100 101 103 99 92 86 82 83 79
165 190 183 156 173 227 269 265 341 47 55 62 70 72 69 70 72 72 71 72 74 74 73 79 82 77 73 78 86 88 94 102 106 105 102 101 102 104 95 92 87 83 81 82 81 69 58 55 44
163 150 111 140 160 209 257 253 246 357 55 73 77 75 73 71 69 67 66 67 67 69 70 69 75 78 76 77 81 87 86 90 96 97 94 94 90 90 89 83 79 74 72 75 75 70 60 59 39
114 121 131 141 165 166 209 250 309 236 133 103 90 82 75 71 70 68 67 67 68 67 68 70 72 74 74 77 81 83 83 85 86 86 86 86 84 85 88 89 87 81 76 76 78 73 59 50 28
123 144 147 155 201 179 171 216 354 100 113 112 101 89 80 75 72 70 69 69 68 69 69 70 71 73 75 79 80 79 78 78 79 79 78 81 81 80 86 90 91 89 85 78 75 63 48 31 9
Height
1521 1521 1522 1523 1526 1537 1536 1526 1519 1515 1512 1510 1510 1511 1512 1514 1517 1521 1516 1516 1519 1522 1525 1528 1532 1534 1537 1539 1541 1543 1545 1546 1548 1550 1551 1553 1554 1555 1557 1558 1560 1561 1562 1563 1564 1565 1566 1567 1567
1520 1521 1523 1523 1535 1546 1538 1523 1518 1514 1511 1509 1510 1511 1511 1512 1513 1513 1513 1516 1520 1523 1525 1528 1531 1534 1537 1539 1541 1543 1545 1547 1549 1550 1552 1553 1555 1556 1558 1559 1560 1562 1563 1564 1565 1566 1567 1567 1568
1518 1520 1522 1526 1538 1542 1531 1518 1515 1511 1509 1509 1510 1511 1512 1512 1511 1512 1514 1516 1520 1523 1526 1529 1531 1534 1537 1539 1541 1543 1545 1547 1549 1551 1552 1554 1555 1557 1558 1559 1561 1562 1563 1564 1565 1566 1567 1567 1568
1517 1519 1522 1530 1534 1529 1522 1515 1512 1511 1510 1509 1511 1512 1512 1513 1512 1513 1514 1517 1520 1523 1526 1529 1531 1534 1536 1539 1541 1543 1545 1547 1549 1550 1552 1554 1555 1557 1558 1560 1561 1562 1563 1564 1565 1566 1567 1567 1568
1515 1518 1526 1534 1530 1522 1515 1512 1511 1510 1509 1509 1510 1511 1512 1513 1512 1514 1515 1518 1520 1523 1526 1529 1531 1534 1536 1538 1540 1542 1545 1546 1548 1550 1552 1554 1555 1557 1558 1560 1561 1562 1563 1564 1565 1566 1567 1567 1568
1514 1517 1532 1536 1527 1518 1512 1509 1509 1508 1507 1507 1509 1511 1511 1512 1513 1515 1516 1518 1521 1523 1526 1528 1531 1533 1536 1538 1540 1542 1544 1546 1548 1550 1551 1553 1555 1556 1558 1559 1560 1562 1563 1564 1565 1566 1566 1567 1567
1514 1520 1528 1527 1523 1517 1509 1506 1505 1504 1504 1504 1506 1509 1510 1511 1513 1515 1517 1519 1522 1524 1526 1528 1530 1533 1535 1537 1539 1541 1543 1545 1547 1549 1551 1553 1554 1556 1557 1559 1560 1561 1563 1564 1564 1565 1566 1567 1567
1511 1517 1522 1523 1519 1514 1505 1504 1502 1501 1501 1503 1505 1506 1506 1508 1512 1515 1517 1519 1522 1524 1526 1528 1529 1532 1534 1536 1538 1540 1542 1544 1546 1548 1550 1552 1554 1555 1557 1558 1560 1561 1562 1563 1564 1565 1566 1566 1567
1511 1520 1525 1519 1514 1508 1503 1502 1501 1499 1499 1500 1502 1503 1504 1507 1510 1513 1515 1518 1520 1522 1524 1527 1529 1531 1533 1535 1537 1540 1542 1544 1545 1547 1549 1551 1553 1554 1556 1557 1559 1560 1561 1563 1564 1564 1565 1566 1567
1509 1520 1516 1508 1504 1502 1501 1500 1500 1498 1498 1498 1499 1501 1503 1505 1507 1509 1511 1513 1515 1518 1521 1524 1527 1530 1532 1534 1536 1538 1540 1542 1544 1546 1548 1550 1552 1553 1555 1557 1558 1559 1561 1562 1563 1564 1565 1566 1566
1506 1510 1506 1502 1501 1500 1499 1498 1497 1496 1496 1493 1494 1497 1500 1503 1505 1507 1508 1510 1512 1516 1519 1522 1525 1528 1530 1532 1534 1536 1538 1540 1543 1545 1547 1549 1551 1552 1554 1555 1557 1558 1560 1561 1562 1563 1565 1565 1566
1504 1502 1501 1499 1498 1499 1498 1495 1494 1492 1489 1489 1491 1494 1497 1499 1501 1502 1505 1507 1511 1514 1516 1519 1522 1525 1528 1530 1532 1534 1536 1539 1541 1543 1545 1548 1549 1551 1553 1555 1556 1558 1559 1560 1562 1563 1564 1565 1566
1502 1500 1498 1497 1496 1495 1494 1493 1492 1486 1485 1487 1490 1492 1494 1495 1498 1501 1504 1506 1509 1511 1513 1516 1519 1521 1524 1527 1530 1532 1535 1537 1540 1542 1544 1546 1548 1550 1552 1554 1555 1557 1558 1560 1561 1562 1563 1564 1565
1496 1496 1495 1494 1492 1491 1491 1488 1488 1481 1482 1484 1486 1488 1491 1493 1495 1499 1501 1503 1505 1507 1510 1513 1516 1518 1521 1524 1527 1530 1533 1536 1538 1540 1543 1545 1547 1549 1551 1553 1554 1556 1557 1559 1560 1561 1562 1563 1564
1495 1495 1494 1490 1488 1487 1488 1488 1484 1480 1481 1482 1484 1485 1488 1490 1493 1494 1496 1498 1501 1504 1507 1510 1513 1516 1519 1522 1526 1529 1532 1535 1537 1540 1542 1544 1546 1548 1550 1551 1553 1554 1556 1557 1558 1559 1560 1561 1561
1494 1497 1500 1491 1487 1486 1491 1494 1482 1480 1480 1480 1482 1484 1486 1487 1489 1491 1494 1497 1499 1502 1504 1508 1511 1513 1517 1521 1525 1528 1531 1534 1537 1539 1541 1543 1545 1547 1548 1549 1551 1552 1554 1555 1556 1557 1558 1558 1558
1501 1504 1501 1494 1487 1487 1489 1491 1481 1479 1479 1478 1480 1481 1483 1484 1486 1488 1490 1493 1496 1499 1501 1505 1508 1511 1515 1519 1523 1527 1530 1532 1535 1537 1539 1541 1543 1545 1546 1547 1548 1549 1551 1552 1553 1554 1555 1555 1555
1506 1502 1499 1497 1489 1489 1490 1488 1481 1478 1477 1476 1477 1478 1480 1480 1479 1482 1486 1489 1493 1496 1498 1501 1505 1508 1512 1516 1520 1523 1527 1529 1531 1534 1535 1538 1540 1541 1543 1544 1545 1547 1547 1548 1549 1550 1551 1551 1551
1495 1497 1499 1496 1489 1489 1489 1487 1480 1475 1474 1473 1473 1474 1475 1474 1475 1480 1483 1486 1489 1492 1494 1497 1501 1504 1508 1512 1515 1519 1521 1525 1528 1530 1531 1533 1535 1537 1539 1540 1542 1543 1544 1545 1546 1546 1546 1547 1547
1495 1498 1499 1494 1488 1487 1488 1485 1476 1472 1471 1469 1469 1469 1470 1471 1473 1476 1478 1481 1484 1487 1490 1494 1497 1500 1504 1507 1510 1514 1517 1521 1524 1525 1527 1529 1531 1532 1534 1536 1538 1540 1540 1541 1542 1542 1542 1542 1542
1495 1497 1496 1495 1491 1488 1488 1489 1479 1470 1468 1467 1466 1466 1466 1467 1468 1470 1474 1477 1480 1483 1486 1490 1493 1498 1502 1505 1508 1512 1515 1517 1519 1522 1524 1525 1527 1528 1530 1531 1534 1535 1536 1537 1538 1538 1538 1538 1537
1496 1488 1489 1491 1498 1504 1495 1508 1486 1474 1470 1466 1465 1464 1463 1463 1464 1466 1469 1472 1476 1480 1484 1488 1491 1495 1500 1503 1506 1509 1512 1515 1516 1518 1521 1522 1524 1526 1527 1528 1530 1532 1533 1534 1534 1534 1534 1534 1533
1485 1481 1486 1489 1495 1502 1500 1506 1495 1477 1473 1468 1465 1464 1462 1461 1462 1463 1466 1470 1474 1478 1481 1486 1490 1494 1498 1501 1505 1508 1510 1511 1513 1516 1518 1520 1521 1523 1524 1525 1527 1529 1529 1530 1530 1530 1530 1531 1531
1476 1483 1490 1498 1503 1510 1499 1506 1499 1483 1476 1471 1467 1465 1462 1461 1461 1463 1466 1469 1473 1477 1481 1485 1489 1493 1498 1501 1504 1507 1508 1509 1511 1514 1516 1518 1519 1520 1522 1523 1524 1526 1527 1527 1528 1528 1528 1528 1528
1478 1494 1511 1510 1518 1512 1493 1498 1495 1479 1475 1473 1470 1467 1465 1464 1464 1466 1468 1471 1475 1478 1482 1486 1490 1494 1497 1500 1502 1504 1507 1509 1510 1512 1514 1516 1518 1519 1520 1522 1523 1524 1525 1526 1526 1526 1526 1526 1526
1478 1487 1508 1514 1513 1506 1493 1496 1487 1478 1476 1473 1471 1470 1469 1469 1470 1471 1473 1476 1479 1482 1486 1489 1492 1495 1498 1499 1501 1503 1506 1509 1510 1511 1514 1516 1518 1519 1521 1522 1523 1523 1524 1524 1524 1524 1524 1524 1524
1475 1482 1479 1497 1500 1504 1499 1489 1483 1478 1477 1476 1475 1475 1474 1475 1475 1477 1478 1480 1483 1486 1488 1491 1494 1496 1498 1499 1502 1504 1507 1510 1511 1512 1514 1516 1518 1519 1521 1522 1522 1523 1523 1523 1523 1523 1522 1522 1522
1461 1470 1487 1497 1508 1509 1496 1491 1493 1484 1481 1480 1479 1479 1480 1480 1480 1481 1483 1485 1487 1489 1491 1494 1496 1497 1499 1502 1504 1506 1509 1510 1511 1513 1514 1516 1517 1519 1520 1521 1522 1522 1522 1521 1521 1521 1520 1519 1518
1465 1471 1478 1489 1491 1501 1505 1500 1485 1484 1482 1482 1483 1483 1484 1484 1485 1486 1487 1489 1491 1493 1495 1497 1499 1501 1502 1504 1506 1508 1510 1511 1512 1514 1515 1517 1518 1519 1520 1521 1521 1521 1520 1520 1519 1518 1517 1516 1514
1458 1464 1475 1484 1488 1490 1495 1499 1483 1481 1481 1483 1485 1486 1487 1488 1489 1490 1492 1493 1495 1497 1498 1500 1502 1503 1505 1506 1508 1509 1511 1512 1513 1515 1517 1518 1519 1520 1520 1520 1520 1519 1519 1518 1516 1515 1514 1512 1510